Tracking 29493 objects as of 9-Sep-2024
HD Live streaming from Space Station
objects crossing your sky now

FENGYUN 1C DEB

Track FENGYUN 1C DEB now!
10-day predictions


NORAD ID: 32095
Int'l Code: 1999-025CQM
Perigee: 792.4 km
Apogee: 905.9 km
Inclination: 98.7 °
Period: 101.8 minutes
Semi major axis: 7220 km
RCS: 0.0116 m2 (small)
Launch date: May 10, 1999
Source: People's Republic of China (PRC)
Launch site: Taiyaun Space Center, China (TSC)

Note: This is SATELLITE DEBRIS
Your satellite tracking list
Your tracking list is empty




NASA's NSSDC Master Catalog

Two Line Element Set (TLE):
1 32095U 99025CQM 24251.84502159  .00002365  00000-0  12054-2 0  9992
2 32095  98.6763 274.6076 0078579 333.3918  26.3232 14.15087289882964
Source of the keplerian elements: AFSPC